Weather History for Caribou, ME

Change the Weather History Date:

Friday, December 7, 2012

  Actual Average Record
Temperature  
Mean Temperature 22 °F 22 °F  
Max Temperature 31 °F 29 °F 48 °F (1982)
Min Temperature 13 °F 15 °F -17 °F (1991)
Degree Days  
Heating Degree Days 43 43  
Month to date heating degree days 259 292  
Since 1 July heating degree days 2091 2437  
Cooling Degree Days 0 0  
Month to date cooling degree days 0 0  
Year to date cooling degree days 279 180  
Moisture  
Dew Point 18 °F    
Average Humidity 76    
Maximum Humidity 88    
Minimum Humidity 63    
Precipitation  
Precipitation 0.00 in 0.11 in 1.21 in (1983)
Month to date precipitation 0.63 0.81  
Year to date precipitation 36.17 36.03  
Snow  
Snow 0.00 in 0.60 in 9.70 in (2003)
Month to date snowfall 1.3 4.5  
Since 1 July snowfall 2.9 16.7  
Snow Depth 0.00 in    
Sea Level Pressure  
Sea Level Pressure 30.13 in    
Wind  
Wind Speed 4 mph (South)    
Max Wind Speed 13 mph    
Max Gust Speed 16 mph    
Visibility 10 miles    
Events      
T = Trace of Precipitation, MM = Missing Value Source: NWS Daily Summary

Daily Weather History Graph

Daily Weather History Graph

Search for Another Location

Airport:

Trip Planner

Search our weather history database for the weather conditions in past years. The results will help you decide how hot, cold, wet, or windy it might be!

Date:

Astronomy

Dec. 07, 2012 Rise Set
Actual Time 7:03 AM EST 3:43 PM EST
Civil Twilight 6:28 AM EST 4:18 PM EST
Nautical Twilight 5:50 AM EST 4:56 PM EST
Astronomical Twilight 5:13 AM EST 5:33 PM EST
Moon No Moon Rise 11:58 AM EST (12/7)
Length of Visible Light 9h 49m
Length of Day
8h 39m
Last Quarter, 39% of the Moon is Illuminated
Dec 7
Last Quarter
Dec 13
New
Dec 20
First Quarter
Dec 28
Full
Jan 4
Last Quarter

Hourly Weather History & Observations

Time (EST) Temp. Windchill Dew Point Humidity Pressure Visibility Wind Dir Wind Speed Gust Speed Precip Events Conditions
12:54 AM 14.0 °F - 10.0 °F 84% 30.27 in 10.0 mi Calm Calm - N/A   Clear
1:54 AM 15.1 °F - 10.9 °F 84% 30.27 in 10.0 mi Calm Calm - N/A   Clear
2:54 AM 15.1 °F - 12.0 °F 88% 30.25 in 10.0 mi Calm Calm - N/A   Clear
3:54 AM 16.0 °F - 12.9 °F 88% 30.24 in 10.0 mi Calm Calm - N/A   Clear
4:54 AM 16.0 °F - 12.9 °F 88% 30.22 in 10.0 mi Calm Calm - N/A   Clear
5:54 AM 16.0 °F 8.8 °F 12.9 °F 88% 30.21 in 10.0 mi ESE 4.6 mph - N/A   Clear
6:54 AM 17.1 °F 11.7 °F 14.0 °F 88% 30.20 in 10.0 mi South 3.5 mph - N/A   Clear
7:54 AM 19.0 °F 12.3 °F 15.1 °F 85% 30.19 in 10.0 mi South 4.6 mph - N/A   Overcast
8:54 AM 21.0 °F 12.4 °F 15.1 °F 78% 30.19 in 10.0 mi SSW 6.9 mph - N/A   Partly Cloudy
9:54 AM 23.0 °F 13.1 °F 15.1 °F 72% 30.16 in 10.0 mi SSE 9.2 mph - N/A   Clear
10:54 AM 24.1 °F 15.2 °F 16.0 °F 71% 30.13 in 10.0 mi SSE 8.1 mph - N/A   Clear
11:54 AM 27.0 °F 21.6 °F 17.1 °F 66% 30.12 in 10.0 mi South 4.6 mph - N/A   Partly Cloudy
12:54 PM 28.0 °F 20.0 °F 18.0 °F 66% 30.09 in 10.0 mi SSE 8.1 mph - N/A   Partly Cloudy
1:54 PM 30.0 °F 22.4 °F 19.0 °F 64% 30.06 in 10.0 mi SSE 8.1 mph - N/A   Clear
2:54 PM 30.0 °F 24.1 °F 19.9 °F 66% 30.06 in 10.0 mi SSE 5.8 mph - N/A   Clear
3:54 PM 28.9 °F 23.9 °F 19.9 °F 69% 30.05 in 10.0 mi South 4.6 mph - N/A   Clear
4:54 PM 28.9 °F 22.8 °F 21.0 °F 72% 30.05 in 10.0 mi South 5.8 mph - N/A   Partly Cloudy
5:54 PM 28.9 °F 25.2 °F 21.9 °F 75% 30.05 in 10.0 mi South 3.5 mph - N/A   Overcast
6:54 PM 27.0 °F 21.6 °F 21.9 °F 81% 30.05 in 10.0 mi SSE 4.6 mph - N/A   Clear
8:54 PM 28.0 °F 24.2 °F 24.1 °F 85% 30.03 in 10.0 mi South 3.5 mph - N/A   Partly Cloudy
9:54 PM 28.0 °F - 24.1 °F 85% 30.02 in 10.0 mi Calm Calm - N/A   Overcast
10:54 PM 28.9 °F - 25.0 °F 85% 30.02 in 10.0 mi Calm Calm - N/A   Mostly Cloudy
11:54 PM 27.0 °F 23.0 °F 25.0 °F 92% 30.02 in 10.0 mi South 3.5 mph - N/A   Overcast